Location: High Meadows Obseravatory
(40.7417°N, 111.5713°W)
Time: 19:00:43
(UTC-06:00)

Envisat - Pass Details

Date: 15 August 2022
Orbit: 763 x 765 km, 98.2° (Epoch: 30 September)

Event Time Altitude Azimuth Distance (km) Brightness Sun altitude
Rises 05:08:43 0° 23° (NNE) 3,236 7.3 -15.6°
Reaches altitude 10° 05:11:16 10° 33° (NNE) 2,305 6.6 -15.2°
Maximum altitude 05:15:47 32° 96° (E) 1,290 4.7 -14.5°
Drops below altitude 10° 05:20:17 10° 159° (SSE) 2,289 5.3 -13.8°
Sets 05:22:48 0° 169° (S) 3,210 6.0 -13.4°
